Etusivu
METAR-TAF:

METAR-TAF

Lentoasemat :

Eureka, Nevada, Yhdysvallat

Leveyspiiri: 39-36-05N, Pituuspiiri: 116-00-20W, korkeus merenpinnasta: 1812 m

Tämänhetkinen sää

Tämä raportti tehtiin 28 minuuttia sitten, kello 15.53 UTC
Tuuli 5 kn pohjoisesta/koillisesta
Lämpötila 0°C
Kosteus 86%
Ilmanpaine 1021 hPa

METAR: KP68 091553Z AUTO 02005KT 00/M02 A3016 RMK AO1 SLP211 T00001017

Aika: 08:21 (16:21 UTC)


TAF: puuttuu

Säähavainnot ja -ennusteet yli 4000 lentoasemalta (METAR- ja TAF-raportit).

Käytössä olevat sääasemat on merkitty karttaan keltaisilla ja punaisilla pisteillä.

Aseta hiiri pisteen päälle nähdäksesi sääaseman nimen.

Klikkaa sitten nähdäksesi säähavainnot ja -ennusteet.

Kartan vaihtaminen: klikkaa mustalla rastilla varustettuja vihreitä pisteitä, niin voit zoomata sisään; viivalla varustettua vihreää pistettä, niin voit zoomata ulos tai vihreitä nuolia, niin pääset viereisille kartoille.


METAR-TAF: